SNUSAT-1

Last updated on Fri Mar 15 2019 00:02:06 GMT+0000 (Coordinated Universal Time)

1 42733U 98067MN 19073.81661424 .22721454 12576-4 28234-3 0 9995 2 42733 51.6021 29.3648 0005433 200.7020 239.9908 16.49371243103244

Satellite not in orbit